Lid_Strength_Index
-1 -1 -1 2 8 8 11 10 7 8 8 5 4 6 6 6 8 11 1 0 -0 -0 -1 -1 -1 -1 -2 -1 -1 -2 -1 -2 -2 -1 -2 -2 -2 -2 -2 -2 -2 -2 -2 -2 -2 -2 -2 -2 -2
2 0 1 4 9 12 11 7 8 7 5 5 5 5 6 7 4 4 3 0 -0 -0 -1 -1 -1 -1 -1 -1 -1 -2 -1 -2 -2 -2 -2 -2 -2 -2 -2 -2 -2 -2 -2 -2 -2 -1 -1 -1 -1
2 1 4 7 9 11 10 7 7 6 5 5 6 4 5 6 4 3 1 -0 -0 -1 -1 -1 -1 -1 -1 -1 -1 -2 -2 -2 -2 -2 -2 -2 -1 -1 -1 -2 -2 -1 -1 -1 -1 -1 -1 -1 -1
4 2 4 9 10 8 7 6 6 6 5 4 5 6 4 2 3 1 0 -0 -0 -0 -1 -1 -1 -1 -1 -1 -2 -2 -2 -2 -2 -2 -2 -1 -1 -1 -1 -2 -2 -1 -1 -1 -1 -1 -1 -1 -1
3 4 9 10 9 7 6 6 5 6 6 5 5 7 6 3 1 1 0 -0 0 -0 -1 -1 -1 -1 -1 -2 -2 -2 -2 -2 -2 -2 -2 -2 -1 -1 -1 -1 -2 -2 -1 -1 -1 -1 -1 -1 -0
6 5 10 11 9 7 6 6 5 6 5 5 6 6 6 2 2 1 0 0 -0 -0 -1 -1 1 -0 -1 -1 -2 -1 -2 -2 -2 -2 -2 -2 -2 -1 -1 -1 -1 -1 -1 -1 -1 -1 -1 -1 -1
7 7 10 9 9 8 6 5 6 6 6 6 4 6 5 4 2 1 0 0 -0 -1 -1 -1 -1 -0 1 -0 -1 -1 -1 -2 -2 -2 -2 -2 -2 -2 -2 -2 -1 -1 -1 -1 -1 -1 -1 -1 -1
5 6 9 9 10 9 6 5 5 5 5 3 3 6 6 3 2 1 0 1 -0 -0 -0 -1 -1 -1 -1 -1 1 0 -1 -1 -1 -1 -1 -1 -1 -1 -1 -1 -2 -1 -1 -1 -1 -1 -1 -1 -1
4 8 10 9 9 8 5 6 4 5 6 4 4 4 3 2 2 2 1 1 1 0 -0 -1 -1 -1 -1 -1 -0 1 0 -0 -1 -1 0 0 -1 -1 -1 -1 -1 -2 -2 -1 -1 -1 -1 -2 -1
7 9 9 6 6 7 6 6 6 5 6 6 5 3 3 3 3 3 3 2 2 1 0 -0 0 -0 -1 -1 -1 -1 -1 -1 -1 -1 -1 -1 -1 -1 -1 1 -0 -1 -1 -1 -2 -1 -2 -1 -1
8 8 6 6 5 5 6 6 5 6 6 6 6 4 4 4 4 4 3 2 2 1 0 0 -0 0 -1 -1 -1 -1 -1 -1 -1 -1 -1 -1 -1 -1 -1 -1 -1 -1 1 -1 -1 -1 -1 -1 -0
10 8 8 6 5 6 6 5 7 6 5 3 3 3 4 4 4 4 3 2 2 1 1 0 -0 -0 -0 -1 -1 -1 -1 -1 -1 -1 -1 -1 -1 -1 -1 -1 -1 -1 -1 -1 -1 -0 -0 -0 -1
10 9 8 6 6 6 6 6 6 6 4 3 3 3 4 4 4 3 2 2 1 1 1 0 -0 -0 -0 -0 -1 -1 -1 -1 -1 -1 -1 -1 -1 -0 -1 -1 -1 -1 -1 -0 0 0 -0 -1 -1
9 9 8 7 6 6 7 6 7 5 4 4 4 4 4 4 4 3 3 2 2 1 1 0 -0 -0 -1 -0 -1 -1 -1 -1 -1 -1 -1 -1 -1 -1 -1 -1 -1 -0 -0 -0 -1 -1 -0 -0 -0
8 10 9 8 7 8 6 8 8 5 5 5 5 4 4 3 3 3 2 2 2 1 1 1 0 -0 -0 -0 -0 -1 -1 -1 -1 -1 -1 -1 -1 -1 -1 -0 -0 -1 -1 -1 -1 -1 -1 -0 -0
10 11 12 9 8 7 7 10 6 6 5 5 5 4 4 4 3 2 2 2 1 1 1 0 0 0 -0 -0 -0 -0 -1 -1 -1 -1 -1 -1 -1 -1 -1 -0 -0 -1 -1 -1 -0 -0 0 0 0
10 14 13 11 8 8 9 10 7 6 6 6 5 5 5 4 3 2 2 1 1 1 1 1 0 0 0 -0 -0 -0 -1 -0 -1 -1 -1 -1 -1 -1 -1 -0 -1 -1 -0 -0 0 0 0 1 1
13 13 12 12 10 9 10 10 9 8 7 6 5 5 5 4 4 2 2 1 1 1 1 1 0 0 0 0 -0 -0 0 -0 -1 -0 -1 -1 -1 -1 -1 -0 -0 -1 -0 0 0 1 0 1 1
12 11 12 12 10 10 11 11 10 8 8 7 6 5 5 5 3 2 2 1 1 1 1 1 1 1 0 1 1 1 1 1 0 -0 -1 -1 -1 -1 -1 -0 -0 -0 0 0 0 1 1 1 0
12 13 13 12 11 11 10 10 9 8 8 8 6 6 5 5 4 4 3 2 2 1 1 1 1 1 1 1 1 1 1 0 0 -0 -0 -1 -1 -1 -0 -0 0 -0 0 0 1 1 1 1 1
13 13 14 14 12 12 12 12 10 8 8 7 7 7 6 6 6 5 5 5 5 5 4 2 1 1 1 0 0 0 0 0 1 1 0 -0 -0 -0 -0 -0 -0 0 0 1 1 1 1 2 1
14 11 12 13 14 16 13 16 12 10 11 10 8 7 6 6 6 6 6 6 6 5 5 5 4 4 3 2 1 1 2 2 1 1 0 0 -0 -0 -0 -0 -0 -0 0 0 0 1 1 1 2
12 10 12 13 14 14 14 16 13 13 13 12 10 9 9 8 8 7 6 6 5 5 4 3 3 3 3 2 3 2 2 1 1 1 1 0 -0 -0 -0 -0 -0 0 0 0 1 1 1 1 1
9 11 11 11 13 17 14 15 15 12 13 12 12 10 8 8 8 8 7 7 6 5 4 4 4 4 3 3 3 3 3 3 3 2 2 1 0 0 -0 -0 0 1 1 0 0 0 0 0 1
10 13 18 19 19 18 15 16 14 12 11 10 10 10 9 8 8 8 7 7 6 6 5 5 4 5 4 4 4 4 4 3 3 3 3 2 1 1 1 0 1 1 3 2 1 1 1 2 1
11 12 17 22 20 16 15 17 14 11 10 10 9 9 8 8 7 6 6 6 6 6 5 5 5 6 5 5 5 4 4 4 4 4 4 3 2 2 3 2 2 3 3 3 3 4 5 4 3
11 13 11 15 16 17 15 13 11 10 12 11 11 10 9 7 7 6 6 6 6 6 6 6 6 7 7 7 6 6 5 5 5 5 4 4 4 5 4 4 5 5 5 5 4 5 5 4 4
9 9 14 15 20 20 16 15 14 12 12 11 11 11 10 9 8 7 6 6 6 6 6 7 7 7 7 7 7 7 7 7 6 6 6 6 6 6 6 6 6 6 6 6 5 5 5 5 5
11 12 11 12 14 18 18 15 11 12 11 11 10 10 9 9 9 8 7 7 7 7 7 7 7 8 8 8 8 8 8 8 7 7 7 7 7 6 6 7 7 7 6 6 5 6 5 5 6
9 10 11 15 17 14 15 15 10 10 10 9 9 9 8 8 8 7 7 7 7 8 8 8 8 8 8 8 8 8 8 8 8 8 8 7 7 7 7 6 6 6 6 6 6 7 6 6 6